COSMOS 1412

Satellite information

Favourite Embed

Satellite Type and Status

PAYLOADIN ORBIT

Key statistics

Satellite COSMOS 1412 at a glance.

Uptime

15558

Days in orbit

Revolutions

≈ 13.9

Per day

Orbit

LEO

Low Earth Orbit

Inclination

64.8

Latest

Satellite identification and parameters

Extended collection of information and parameters for COSMOS 1412.

Object identification

Identified? True

Debris? False

Object name: COSMOS 1412

International designator: 1982-099A

Object number (NORAD): 13600

Object ID (CCSDS): 13600

Country: COMMONWEALTH OF INDEPENDENT STATES (CIS)

Current information (Y/N): Y

RCS size: LARGE

Orbital parameters

Period: 103.869 minutes

Inclination: 64.8154 deg

SMA: 7319.569 km

Apoapsis: 980.342 km

Periapsis: 902.526 km

RAAN: 347.1569 deg

Eccentricy: 0.0053156

Argument of periapsis: 173.8905 deg

Mean anomaly: 268.3258 deg

Mean motion: 13.86355243 rev/day

Mean motion (dot): -0.00000048 rev/day2

B* drag term: 0.00003613 1/REarth

Two-line elements (TLE)

Creation date: May 6, 2025, 3:54 a.m.

Reference frame: TEME

Reference center: EARTH

Epoch: May 5, 2025, 8:27 p.m. UTC

TLE line 0: 0 COSMOS 1412

TLE line 1: 1 13600U 82099A 25125.85249575 -.00000048 00000-0 36130-4 0 9998

TLE line 2: 2 13600 64.8154 347.1569 0053156 173.8905 268.3258 13.86355243143235

Live tracking on map

Real-time ground track for satellite COSMOS 1412.

In-orbit conjunctions

A list of the most updated potential collisions computed for object COSMOS 1412.

Target Orbit TCA Probability of collision Miss distance Type
DELTA 1 DEB SSO 2024-10-06 07:03:15 0.0001132831 932.0 (m) DEBRIS

Associated space launch

Active radar satellite for ocean surveillance powered by a nuclear reactor.

COSMOS 1412 was lifted into orbit during the mission ‘Tsiklon-2 | US-A 23’, on board a Tsiklon-2 space rocket.

The launch took place on Oct. 2, 1982, 12:01 a.m. from 90.

For more information about the launch, click the button.

Launch to space Tsiklon-2 | US-A 23
Tsiklon-2 | US-A 23

Agency: N/A

Status: Launch Successful

Launch date: Oct. 2, 1982, 12:01 a.m. UTC

Rocket: Tsiklon-2

Launch pad: 90

Location: Baikonur Cosmodrome, Republic of Kazakhstan

...

Latest news about this satellite

There are no fresh news available about this satellite. Check back as we update our databases every day.


Newsletter sign-up

Weekly statistics, charts and insights to help you stay on top of the space industry.